Weather History for Louisburg, NC

Change the Weather History Date:

Saturday, November 17, 2012

  Actual Average (KRDU) Record (KRDU)
Temperature  
Mean Temperature 45 °F 52 °F  
Max Temperature 55 °F 63 °F 78 °F (1957)
Min Temperature 35 °F 40 °F 23 °F (1997)
Degree Days  
Heating Degree Days 20 13  
Month to date heating degree days 190  
Since 1 July heating degree days 379  
Cooling Degree Days 0 0  
Month to date cooling degree days 1  
Year to date cooling degree days 1721  
Moisture  
Dew Point 33 °F    
Average Humidity 59    
Maximum Humidity 100    
Minimum Humidity 38    
Precipitation  
Precipitation 0.00 in 0.11 in 1.14 in (1980)
Month to date precipitation 1.78  
Year to date precipitation 38.93  
Snow  
Snow 0.00 in 0.00 in 0.00 in (2002)
Month to date snowfall 0.0  
Since 1 July snowfall 0.0  
Since 1 September snowfall 0.0  
Snow Depth -    
Sea Level Pressure  
Sea Level Pressure 30.45 in    
Wind  
Wind Speed 5 mph (NNE)    
Max Wind Speed 15 mph    
Max Gust Speed 20 mph    
Visibility 10 miles    
Events      
T = Trace of Precipitation, MM = Missing Value Source: NWS Daily Summary

Daily Weather History Graph

Daily Weather History Graph

Search for Another Location

Airport:

Trip Planner

Search our weather history database for the weather conditions in past years. The results will help you decide how hot, cold, wet, or windy it might be!

Date:

Astronomy

Nov. 17, 2012 Rise Set
Actual Time 6:52 AM EST 5:04 PM EST
Civil Twilight 6:24 AM EST 5:31 PM EST
Nautical Twilight 5:53 AM EST 6:02 PM EST
Astronomical Twilight 5:23 AM EST 6:33 PM EST
Moon 10:35 AM EST 9:11 PM EST
Length of Visible Light 11h 06m
Length of Day
10h 11m
Waxing Crescent, 20% of the Moon is Illuminated
Nov 17
Waxing Crescent
Nov 20
First Quarter
Nov 28
Full
Dec 6
Last Quarter
Dec 13
New

Hourly Weather History & Observations

Time (EST) Temp. Windchill Dew Point Humidity Pressure Visibility Wind Dir Wind Speed Gust Speed Precip Events Conditions
12:15 AM - - - N/A% 30.39 in 10.0 mi Calm Calm - N/A   Clear
12:35 AM - - - N/A% 30.39 in 7.0 mi Calm Calm - N/A   Clear
12:55 AM - - - N/A% 30.40 in 7.0 mi Calm Calm - N/A   Clear
1:15 AM - - - N/A% 30.40 in 10.0 mi Calm Calm - N/A   Clear
1:35 AM - - - N/A% 30.40 in 7.0 mi Calm Calm - N/A   Clear
1:55 AM - - - N/A% 30.41 in 5.0 mi Calm Calm - N/A   Haze
2:15 AM - - - N/A% 30.41 in 7.0 mi Calm Calm - N/A   Clear
2:35 AM - - - N/A% 30.41 in 10.0 mi Calm Calm - N/A   Clear
2:55 AM - - - N/A% 30.41 in 10.0 mi NW 3.5 mph - N/A   Clear
3:15 AM - - - N/A% 30.42 in 10.0 mi Calm Calm - N/A   Clear
3:35 AM - - - N/A% 30.42 in 10.0 mi Calm Calm - N/A   Clear
3:55 AM - - - N/A% 30.42 in 10.0 mi Calm Calm - N/A   Clear
4:15 AM - - - N/A% 30.43 in 10.0 mi Calm Calm - N/A   Clear
4:35 AM - - - N/A% 30.43 in 10.0 mi Calm Calm - N/A   Clear
4:55 AM - - - N/A% 30.43 in 10.0 mi North 4.6 mph - N/A   Clear
5:15 AM - - - N/A% 30.43 in 10.0 mi North 5.8 mph - N/A   Clear
5:35 AM - - - N/A% 30.43 in 10.0 mi North 3.5 mph - N/A   Clear
5:55 AM - - - N/A% 30.43 in 10.0 mi North 5.8 mph - N/A   Clear
6:15 AM - - - N/A% 30.44 in 10.0 mi North 4.6 mph - N/A   Clear
6:35 AM - - - N/A% 30.44 in 10.0 mi North 5.8 mph - N/A   Clear
6:55 AM - - - N/A% 30.45 in 10.0 mi North 6.9 mph - N/A   Clear
7:15 AM - - - N/A% 30.45 in 7.0 mi North 6.9 mph - N/A   Clear
7:35 AM 35.6 °F 30.7 °F 35.6 °F 100% 30.46 in 10.0 mi North 5.8 mph - N/A   Clear
7:55 AM 37.4 °F 30.8 °F 37.4 °F 100% 30.47 in 10.0 mi North 9.2 mph - N/A   Clear
8:15 AM 37.4 °F 30.3 °F 32.0 °F 81% 30.48 in 10.0 mi NNE 10.4 mph - N/A   Clear
8:35 AM 39.2 °F 34.2 °F 32.0 °F 75% 30.49 in 10.0 mi North 6.9 mph - N/A   Clear
8:55 AM 41.0 °F 35.8 °F 32.0 °F 70% 30.49 in 10.0 mi North 8.1 mph 16.1 mph N/A   Clear
9:15 AM 42.8 °F 36.2 °F 32.0 °F 66% 30.48 in 10.0 mi North 12.7 mph 17.3 mph N/A   Clear
9:35 AM 44.6 °F 38.8 °F 32.0 °F 61% 30.48 in 10.0 mi North 11.5 mph 19.6 mph N/A   Clear
9:55 AM 44.6 °F 38.4 °F 32.0 °F 61% 30.48 in 10.0 mi NNE 12.7 mph 18.4 mph N/A   Clear
10:15 AM 46.4 °F 41.1 °F 32.0 °F 57% 30.48 in 10.0 mi North 11.5 mph 16.1 mph N/A   Clear
10:35 AM 46.4 °F 42.4 °F 32.0 °F 57% 30.49 in 10.0 mi North 8.1 mph 17.3 mph N/A   Clear
10:55 AM 48.2 °F - 32.0 °F 54% 30.48 in 10.0 mi North 11.5 mph - N/A   Clear
11:15 AM 50.0 °F - 33.8 °F 54% 30.49 in 10.0 mi North 10.4 mph 16.1 mph N/A   Clear
11:35 AM 50.0 °F - 32.0 °F 50% 30.48 in 10.0 mi NNE 9.2 mph - N/A   Clear
12:55 PM 53.6 °F - 30.2 °F 41% 30.44 in 10.0 mi NNE 8.1 mph 18.4 mph N/A   Clear
1:15 PM 53.6 °F - 30.2 °F 41% 30.43 in 10.0 mi NNE 12.7 mph 16.1 mph N/A   Clear
1:35 PM 55.4 °F - 30.2 °F 38% 30.44 in 10.0 mi NNE 9.2 mph - N/A   Clear
1:55 PM 55.4 °F - 30.2 °F 38% 30.44 in 10.0 mi NE 11.5 mph 18.4 mph N/A   Clear
2:15 PM 55.4 °F - 30.2 °F 38% 30.44 in 10.0 mi North 11.5 mph - N/A   Clear
2:35 PM 55.4 °F - 30.2 °F 38% 30.44 in 10.0 mi NNE 15.0 mph 19.6 mph N/A   Clear
2:55 PM 53.6 °F - 32.0 °F 44% 30.44 in 10.0 mi NE 13.8 mph 19.6 mph N/A   Clear
3:15 PM 53.6 °F - 30.2 °F 41% 30.44 in 10.0 mi NNE 11.5 mph - N/A   Clear
3:35 PM 53.6 °F - 30.2 °F 41% 30.45 in 10.0 mi NNE 11.5 mph 16.1 mph N/A   Clear
3:55 PM 53.6 °F - 30.2 °F 41% 30.45 in 10.0 mi NE 12.7 mph 17.3 mph N/A   Clear
4:15 PM 51.8 °F - 32.0 °F 47% 30.46 in 10.0 mi NE 12.7 mph 16.1 mph N/A   Clear
4:35 PM 51.8 °F - 32.0 °F 47% 30.46 in 10.0 mi NNE 8.1 mph - N/A   Clear
4:55 PM 51.8 °F - 32.0 °F 47% 30.46 in 10.0 mi North 5.8 mph - N/A   Clear
5:15 PM 50.0 °F - 32.0 °F 50% 30.47 in 10.0 mi North 6.9 mph - N/A   Clear
5:35 PM 50.0 °F - 32.0 °F 50% 30.47 in 10.0 mi NNE 8.1 mph - N/A   Clear
5:55 PM 50.0 °F - 32.0 °F 50% 30.48 in 10.0 mi NNE 8.1 mph - N/A   Clear
6:15 PM 48.2 °F - 33.8 °F 58% 30.48 in 10.0 mi North 5.8 mph - N/A   Mostly Cloudy
6:35 PM 48.2 °F - 33.8 °F 58% 30.49 in 10.0 mi NNE 8.1 mph - N/A   Overcast
6:55 PM 48.2 °F - 33.8 °F 58% 30.49 in 10.0 mi NNE 9.2 mph - N/A   Overcast
7:15 PM 48.2 °F - 33.8 °F 58% 30.48 in 10.0 mi North 8.1 mph - N/A   Mostly Cloudy
7:35 PM 46.4 °F 42.4 °F 33.8 °F 62% 30.48 in 10.0 mi NNE 8.1 mph - N/A   Scattered Clouds
7:55 PM 46.4 °F 42.4 °F 35.6 °F 66% 30.47 in 10.0 mi NNE 8.1 mph - N/A   Clear
8:15 PM 46.4 °F 41.9 °F 35.6 °F 66% 30.48 in 10.0 mi NNE 9.2 mph - N/A   Clear
8:35 PM 46.4 °F 41.9 °F 33.8 °F 62% 30.48 in 10.0 mi North 9.2 mph - N/A   Clear
8:55 PM 46.4 °F 41.9 °F 33.8 °F 62% 30.48 in 10.0 mi North 9.2 mph - N/A   Clear
9:15 PM 46.4 °F 41.9 °F 33.8 °F 62% 30.48 in 10.0 mi North 9.2 mph 17.3 mph N/A   Clear
9:35 PM 44.6 °F 39.2 °F 35.6 °F 71% 30.48 in 10.0 mi North 10.4 mph - N/A   Clear
9:55 PM 44.6 °F 39.7 °F 35.6 °F 71% 30.47 in 10.0 mi NNE 9.2 mph - N/A   Clear
10:15 PM 44.6 °F 40.7 °F 35.6 °F 71% 30.47 in 10.0 mi North 6.9 mph - N/A   Clear
10:35 PM 44.6 °F 39.7 °F 35.6 °F 71% 30.47 in 10.0 mi North 9.2 mph - N/A   Clear
10:55 PM 44.6 °F 39.2 °F 35.6 °F 71% 30.47 in 10.0 mi NNE 10.4 mph 17.3 mph N/A   Clear
11:15 PM 44.6 °F 40.7 °F 35.6 °F 71% 30.46 in 10.0 mi NNE 6.9 mph 17.3 mph N/A   Scattered Clouds
11:35 PM 44.6 °F 39.7 °F 37.4 °F 76% 30.46 in 10.0 mi North 9.2 mph - N/A   Overcast
11:55 PM 44.6 °F 39.2 °F 37.4 °F 76% 30.46 in 10.0 mi NNE 10.4 mph 18.4 mph N/A   Overcast